GW2584 Weather Reports


time (UTC)temp
F
wind
direction
speed
knots
gust
knots
rain 1hr
in
rain 24hr
in
rain mn
in
humidity
%
barometer
mb
20260506123058 26 0 0.0 0.0 0.00 0.00 0.00 94 1016.7
20260506121613 26 0 0.0 0.0 0.00 0.00 0.00 94 1016.7
20260506120125 26 0 0.0 0.0 0.00 0.00 0.00 94 1016.7
20260506114606 26 0 0.0 0.0 0.00 0.00 0.00 94 1016.3
20260506113110 26 0 0.0 0.0 0.00 0.00 0.00 93 1016.4
20260506111609 26 0 0.0 0.0 0.00 0.00 0.00 93 1016.2
20260506110112 26 0 0.0 0.0 0.00 0.00 0.00 94 1016.2
20260506104605 26 0 0.0 0.0 0.00 0.00 0.00 94 1016.2
20260506103100 25 0 0.0 0.0 0.00 0.00 0.00 93 1016.2
20260506101558 25 0 0.0 0.0 0.00 0.00 0.00 93 1016.2
20260506100058 26 0 0.0 0.0 0.00 0.00 0.00 93 1016.4
20260506094555 26 0 0.0 0.0 0.00 0.07 0.00 94 1016.6
20260506093058 26 0 0.0 0.0 0.00 0.07 0.00 94 1016.4
20260506091557 26 0 0.0 0.0 0.00 0.07 0.00 94 1016.2
20260506090057 26 0 0.0 0.0 0.00 0.07 0.00 94 1016.3
20260506084556 26 0 0.0 0.0 0.00 0.07 0.00 93 1016.6
20260506083059 26 0 0.0 0.0 0.00 0.07 0.00 94 1016.5
20260506081556 26 0 0.0 0.0 0.00 0.07 0.00 94 1016.6
20260506073102 27 0 0.0 0.0 0.00 0.08 0.00 94 1017.1
20260506071558 27 0 0.0 0.0 0.00 0.08 0.00 94 1016.4
20260506070116 27 0 0.0 0.0 0.00 0.08 0.00 94 1016.5
20260506061602 27 0 0.0 0.0 0.00 0.08 0.00 94 1016.2
20260506050114 27 0 0.0 0.0 0.00 0.08 0.08 94 1015.9
20260506044601 27 0 0.0 0.0 0.00 0.08 0.08 94 1015.7
20260506043055 27 0 0.0 0.0 0.00 0.08 0.08 94 1015.4
20260506041559 27 0 0.0 0.0 0.00 0.08 0.08 94 1015.7
20260506040101 28 0 0.0 0.0 0.00 0.08 0.08 94 1015.6
20260506034557 28 0 0.0 0.0 0.00 0.09 0.08 94 1015.1
20260506033059 28 0 0.0 0.0 0.00 0.09 0.08 94 1015.3
20260506031601 28 0 0.0 0.0 0.00 0.09 0.08 94 1015.3
20260506030112 28 0 0.0 0.0 0.00 0.09 0.08 94 1014.8
20260506024555 27 0 0.0 0.0 0.00 0.34 0.08 94 1014.6
20260506023056 27 0 0.0 0.0 0.00 0.34 0.08 94 1014.5
20260506021607 27 0 0.0 0.0 0.00 0.34 0.08 94 1014.1
20260506020058 28 0 0.0 0.0 0.00 0.34 0.08 94 1014.0
20260506014601 28 0 0.0 1.7 0.00 0.38 0.08 94 1013.9
20260506013058 28 0 0.0 0.9 0.00 0.38 0.08 94 1013.8
20260506011559 28 0 0.9 2.6 0.00 0.38 0.08 93 1013.4
20260506010059 28 0 0.0 0.9 0.00 0.38 0.08 93 1013.4
20260506004627 28 0 0.0 1.7 0.00 0.38 0.08 94 1013.3
20260506003058 28 70 0.0 0.9 0.00 0.38 0.08 93 1013.4
20260506001559 29 0 0.0 0.9 0.00 0.38 0.08 94 1013.6
20260506000057 29 0 0.0 0.9 0.00 0.38 0.08 94 1013.5
20260505234615 29 0 0.0 0.9 0.00 0.38 0.08 94 1013.5
20260505233108 29 0 0.0 3.5 0.00 0.38 0.08 94 1013.4
20260505231600 29 89 0.0 1.7 0.00 0.38 0.08 94 1013.2
20260505230100 29 0 0.0 0.9 0.00 0.38 0.08 94 1013.3
20260505224559 29 122 0.0 1.7 0.00 0.39 0.08 94 1013.5
20260505223104 29 0 0.0 1.7 0.00 0.39 0.08 94 1013.7
20260505221610 29 0 0.0 2.6 0.00 0.39 0.08 94 1012.8
20260505220141 29 39 1.7 2.6 0.00 0.39 0.08 93 1012.7
20260505214617 30 90 0.9 5.2 0.00 0.39 0.08 93 1012.5
20260505213055 30 47 2.6 7.8 0.00 0.39 0.08 93 1012.2
20260505211613 32 36 1.7 3.5 0.00 0.39 0.08 93 1012.4
20260505210055 33 0 0.9 5.2 0.00 0.39 0.08 94 1012.7
20260505204601 33 88 0.9 3.5 0.00 0.39 0.08 94 1012.6
20260505203058 32 0 0.0 0.0 0.00 0.39 0.08 94 1013.0
20260505201607 32 0 0.0 0.0 0.00 0.39 0.08 94 1013.4
20260505200105 31 0 0.0 0.0 0.00 0.39 0.08 94 1013.6
20260505194604 31 0 0.0 0.0 0.00 0.39 0.08 94 1013.5
20260505193056 31 0 0.0 0.0 0.00 0.39 0.08 94 1013.6
20260505191557 31 0 0.0 0.0 0.00 0.39 0.08 94 1013.7
20260505184600 31 0 0.0 0.0 0.00 0.39 0.08 94 1013.5
20260505183059 31 0 0.0 0.0 0.00 0.39 0.08 94 1013.7
20260505181556 32 0 0.0 0.0 0.00 0.39 0.08 94 1014.2
20260505174558 31 19 0.0 0.9 0.00 0.39 0.08 94 1014.2
20260505173056 31 0 0.0 0.9 0.00 0.39 0.08 94 1014.4
20260505171557 31 0 0.0 1.7 0.00 0.39 0.08 94 1014.7
20260505170056 31 0 0.0 2.6 0.00 0.39 0.08 94 1014.8
20260505164623 31 0 0.9 4.3 0.00 0.39 0.08 94 1014.6
20260505163056 31 0 0.9 2.6 0.00 0.39 0.08 94 1014.6
20260505161559 31 32 1.7 3.5 0.00 0.39 0.08 94 1014.6
20260505160108 31 29 0.9 3.5 0.00 0.39 0.08 94 1014.7
20260505153055 31 31 0.0 1.7 0.00 0.39 0.08 94 1014.9
20260505151606 31 0 0.0 0.9 0.00 0.39 0.08 94 1014.9
20260505140114 30 94 0.0 1.7 0.00 0.39 0.08 94 1014.9
20260505130111 30 0 0.0 0.9 0.00 0.39 0.08 94 1014.4
20260505124617 31 0 0.0 0.9 0.00 0.39 0.08 94 1014.4